| time (UTC) | temp C | wind direction | speed KPH | gust KPH | rain 1hr cm | rain 24hr cm | rain mn cm | humidity % | barometer mb |
| 20260506205133 | 15 | 341 | 4.8 | 14.5 | 0.00 | 0.00 | 0.00 | 74 | 1012.4 |
| 20260506204832 | 15 | 11 | 6.4 | 14.5 | 0.00 | 0.00 | 0.00 | 74 | 1012.6 |
| 20260506204039 | 15 | 353 | 6.4 | 12.9 | 0.00 | 0.00 | 0.00 | 73 | 1012.6 |
| 20260506203538 | 15 | 65 | 4.8 | 12.9 | 0.00 | 0.00 | 0.00 | 73 | 1012.7 |
| 20260506203013 | 15 | 23 | 3.2 | 12.9 | 0.00 | 0.00 | 0.00 | 75 | 1012.6 |
| 20260506202702 | 15 | 23 | 4.8 | 14.5 | 0.00 | 0.00 | 0.00 | 76 | 1012.7 |
| 20260506201942 | 15 | 29 | 4.8 | 14.5 | 0.00 | 0.00 | 0.00 | 76 | 1012.9 |
| 20260506201639 | 15 | 35 | 3.2 | 11.3 | 0.00 | 0.00 | 0.00 | 76 | 1013.1 |
| 20260506201111 | 15 | 309 | 3.2 | 9.7 | 0.00 | 0.00 | 0.00 | 75 | 1013.1 |
| 20260506200344 | 15 | 13 | 3.2 | 11.3 | 0.00 | 0.00 | 0.00 | 75 | 1013.4 |
| 20260506195841 | 15 | 44 | 4.8 | 11.3 | 0.00 | 0.00 | 0.00 | 74 | 1013.2 |
| 20260506195337 | 15 | 51 | 4.8 | 11.3 | 0.00 | 0.00 | 0.00 | 76 | 1012.8 |
| 20260506194831 | 15 | 31 | 3.2 | 11.3 | 0.00 | 0.00 | 0.00 | 79 | 1012.6 |
| 20260506194329 | 14 | 315 | 3.2 | 8.0 | 0.00 | 0.00 | 0.00 | 80 | 1012.7 |
| 20260506194247 | 14 | 18 | 3.2 | 8.0 | 0.00 | 0.00 | 0.00 | 79 | 1013.0 |
| 20260506193259 | 13 | 352 | 3.2 | 8.0 | 0.00 | 0.00 | 0.00 | 79 | 1013.0 |
| 20260506192758 | 13 | 14 | 1.6 | 9.7 | 0.00 | 0.00 | 0.00 | 79 | 1013.3 |
| 20260506192253 | 13 | 40 | 1.6 | 9.7 | 0.00 | 0.00 | 0.00 | 80 | 1013.5 |
| 20260506191752 | 13 | 315 | 3.2 | 11.3 | 0.00 | 0.00 | 0.00 | 80 | 1013.5 |
| 20260506191225 | 13 | 334 | 3.2 | 11.3 | 0.00 | 0.00 | 0.00 | 79 | 1013.4 |
| 20260506190726 | 13 | 15 | 3.2 | 9.7 | 0.00 | 0.00 | 0.00 | 80 | 1013.3 |
| 20260506190418 | 13 | 345 | 3.2 | 9.7 | 0.00 | 0.00 | 0.00 | 80 | 1013.2 |
| 20260506185653 | 13 | 30 | 3.2 | 9.7 | 0.00 | 0.00 | 0.00 | 80 | 1013.2 |
| 20260506185123 | 13 | 6 | 3.2 | 8.0 | 0.00 | 0.00 | 0.00 | 80 | 1013.4 |
| 20260506184619 | 13 | 23 | 1.6 | 11.3 | 0.00 | 0.00 | 0.00 | 80 | 1013.2 |
| 20260506184120 | 13 | 10 | 3.2 | 11.3 | 0.00 | 0.00 | 0.00 | 80 | 1013.1 |
| 20260506183551 | 13 | 347 | 3.2 | 11.3 | 0.00 | 0.00 | 0.00 | 80 | 1012.8 |
| 20260506183049 | 13 | 12 | 4.8 | 16.1 | 0.00 | 0.00 | 0.00 | 80 | 1012.6 |
| 20260506182523 | 13 | 41 | 6.4 | 16.1 | 0.00 | 0.00 | 0.00 | 82 | 1012.2 |
| 20260506182022 | 13 | 25 | 8.0 | 19.3 | 0.00 | 0.00 | 0.00 | 82 | 1012.0 |
| 20260506181453 | 13 | 39 | 6.4 | 19.3 | 0.00 | 0.00 | 0.00 | 82 | 1011.7 |
| 20260506180952 | 13 | 322 | 8.0 | 16.1 | 0.00 | 0.00 | 0.00 | 82 | 1011.6 |
| 20260506180912 | 12 | 7 | 9.7 | 20.9 | 0.00 | 0.00 | 0.00 | 82 | 1011.6 |
| 20260506175857 | 12 | 328 | 9.7 | 20.9 | 0.00 | 0.00 | 0.00 | 82 | 1011.5 |
| 20260506175354 | 12 | 356 | 8.0 | 20.9 | 0.00 | 0.00 | 0.00 | 83 | 1012.0 |
| 20260506174830 | 12 | 337 | 6.4 | 19.3 | 0.00 | 0.00 | 0.00 | 83 | 1012.3 |
| 20260506174305 | 12 | 11 | 6.4 | 14.5 | 0.00 | 0.00 | 0.00 | 85 | 1012.4 |
| 20260506174004 | 12 | 356 | 3.2 | 14.5 | 0.00 | 0.00 | 0.00 | 87 | 1012.5 |
| 20260506173220 | 12 | 329 | 1.6 | 9.7 | 0.00 | 0.00 | 0.00 | 88 | 1012.9 |
| 20260506172703 | 12 | 345 | 3.2 | 14.5 | 0.00 | 0.00 | 0.00 | 88 | 1013.2 |
| 20260506172425 | 11 | 87 | 6.4 | 16.1 | 0.00 | 0.00 | 0.00 | 88 | 1013.1 |
| 20260506171701 | 11 | 63 | 4.8 | 16.1 | 0.00 | 0.00 | 0.00 | 89 | 1013.2 |
| 20260506171205 | 11 | 326 | 4.8 | 12.9 | 0.00 | 0.00 | 0.00 | 89 | 1013.3 |
| 20260506170638 | 11 | 6 | 6.4 | 22.5 | 0.00 | 0.00 | 0.00 | 89 | 1013.3 |
| 20260506170112 | 11 | 35 | 8.0 | 22.5 | 0.00 | 0.00 | 0.00 | 89 | 1012.6 |
| 20260506165609 | 11 | 342 | 6.4 | 16.1 | 0.00 | 0.00 | 0.00 | 89 | 1012.7 |
| 20260506165107 | 11 | 14 | 6.4 | 14.5 | 0.00 | 0.00 | 0.00 | 89 | 1013.0 |
| 20260506164814 | 11 | 41 | 4.8 | 12.9 | 0.00 | 0.00 | 0.00 | 89 | 1013.0 |
| 20260506164052 | 12 | 33 | 3.2 | 12.9 | 0.00 | 0.00 | 0.00 | 89 | 1013.1 |
| 20260506163529 | 12 | 5 | 3.2 | 12.9 | 0.00 | 0.00 | 0.00 | 88 | 1013.2 |
| 20260506162959 | 12 | 28 | 3.2 | 8.0 | 0.00 | 0.00 | 0.00 | 89 | 1013.3 |
| 20260506162720 | 12 | 333 | 1.6 | 8.0 | 0.00 | 0.00 | 0.00 | 89 | 1013.3 |
| 20260506161958 | 12 | 68 | 0.0 | 3.2 | 0.00 | 0.00 | 0.00 | 89 | 1013.4 |
| 20260506161451 | 12 | 66 | 0.0 | 6.4 | 0.00 | 0.00 | 0.00 | 89 | 1013.3 |
| 20260506160953 | 12 | 68 | 0.0 | 6.4 | 0.00 | 0.00 | 0.00 | 89 | 1013.3 |
| 20260506160437 | 12 | 108 | 0.0 | 4.8 | 0.00 | 0.00 | 0.00 | 89 | 1013.5 |
| 20260506160202 | 11 | 357 | 1.6 | 22.5 | 0.00 | 0.00 | 0.00 | 89 | 1013.4 |
| 20260506155417 | 11 | 11 | 1.6 | 22.5 | 0.00 | 0.00 | 0.00 | 88 | 1012.9 |
| 20260506154851 | 11 | 14 | 6.4 | 24.1 | 0.00 | 0.00 | 0.00 | 86 | 1013.5 |
| 20260506154352 | 11 | 335 | 8.0 | 24.1 | 0.00 | 0.00 | 0.00 | 85 | 1012.0 |
| 20260506153826 | 11 | 325 | 3.2 | 14.5 | 0.00 | 0.00 | 0.00 | 83 | 1013.9 |
| 20260506153528 | 12 | 349 | 1.6 | 30.6 | 0.00 | 0.00 | 0.00 | 80 | 1014.6 |
| 20260506152740 | 12 | 267 | 1.6 | 30.6 | 0.00 | 0.00 | 0.00 | 79 | 1015.0 |
| 20260506152242 | 12 | 94 | 3.2 | 9.7 | 0.00 | 0.00 | 0.00 | 78 | 1014.7 |
| 20260506151715 | 12 | 351 | 4.8 | 16.1 | 0.00 | 0.00 | 0.00 | 79 | 1014.1 |
| 20260506151157 | 12 | 52 | 4.8 | 16.1 | 0.00 | 0.00 | 0.00 | 79 | 1013.8 |
| 20260506150630 | 12 | 33 | 4.8 | 14.5 | 0.00 | 0.00 | 0.00 | 79 | 1013.4 |
| 20260506150058 | 12 | 6 | 6.4 | 16.1 | 0.00 | 0.00 | 0.00 | 78 | 1013.3 |
| 20260506145057 | 12 | 309 | 6.4 | 17.7 | 0.00 | 0.00 | 0.00 | 77 | 1012.8 |
| 20260506144556 | 12 | 18 | 4.8 | 14.5 | 0.00 | 0.00 | 0.00 | 76 | 1013.0 |
| 20260506144034 | 12 | 326 | 4.8 | 14.5 | 0.00 | 0.00 | 0.00 | 77 | 1013.6 |
| 20260506143531 | 12 | 15 | 4.8 | 14.5 | 0.00 | 0.00 | 0.00 | 77 | 1013.5 |
| 20260506143231 | 12 | 6 | 4.8 | 16.1 | 0.00 | 0.00 | 0.00 | 77 | 1013.0 |
| 20260506142445 | 12 | 334 | 6.4 | 16.1 | 0.00 | 0.00 | 0.00 | 77 | 1012.9 |
| 20260506141922 | 12 | 328 | 4.8 | 16.1 | 0.00 | 0.00 | 0.00 | 77 | 1013.0 |
| 20260506141355 | 12 | 319 | 4.8 | 12.9 | 0.00 | 0.00 | 0.00 | 77 | 1013.0 |
| 20260506140855 | 12 | 347 | 6.4 | 14.5 | 0.00 | 0.00 | 0.00 | 77 | 1012.8 |
| 20260506140350 | 12 | 315 | 6.4 | 14.5 | 0.00 | 0.00 | 0.00 | 76 | 1012.6 |
| 20260506135850 | 12 | 329 | 4.8 | 14.5 | 0.00 | 0.00 | 0.00 | 76 | 1012.4 |
| 20260506135812 | 12 | 309 | 4.8 | 14.5 | 0.00 | 0.00 | 0.00 | 77 | 1012.4 |
| 20260506134756 | 12 | 304 | 4.8 | 17.7 | 0.00 | 0.00 | 0.00 | 77 | 1012.5 |
| 20260506134230 | 12 | 332 | 6.4 | 17.7 | 0.00 | 0.00 | 0.00 | 77 | 1012.5 |
| 20260506133729 | 12 | 4 | 8.0 | 19.3 | 0.00 | 0.00 | 0.00 | 78 | 1012.3 |
| 20260506133201 | 12 | 37 | 8.0 | 19.3 | 0.00 | 0.00 | 0.00 | 78 | 1012.2 |
| 20260506132637 | 12 | 25 | 6.4 | 16.1 | 0.00 | 0.00 | 0.00 | 78 | 1012.2 |
| 20260506132401 | 12 | 315 | 4.8 | 16.1 | 0.00 | 0.00 | 0.00 | 79 | 1012.0 |
| 20260506131632 | 12 | 2 | 4.8 | 16.1 | 0.00 | 0.00 | 0.00 | 79 | 1012.0 |
| 20260506131109 | 12 | 342 | 4.8 | 16.1 | 0.00 | 0.00 | 0.00 | 79 | 1012.1 |
| 20260506130543 | 12 | 343 | 6.4 | 17.7 | 0.00 | 0.00 | 0.00 | 78 | 1012.0 |
| 20260506130026 | 12 | 330 | 6.4 | 17.7 | 0.00 | 0.00 | 0.00 | 78 | 1012.0 |
| 20260506125526 | 12 | 335 | 6.4 | 14.5 | 0.00 | 0.00 | 0.00 | 78 | 1012.0 |
| 20260506125248 | 12 | 247 | 6.4 | 14.5 | 0.00 | 0.00 | 0.00 | 77 | 1011.7 |
| 20260506124523 | 12 | 347 | 6.4 | 12.9 | 0.00 | 0.00 | 0.00 | 77 | 1011.5 |
| 20260506124024 | 12 | 20 | 4.8 | 14.5 | 0.00 | 0.00 | 0.00 | 76 | 1011.5 |
| 20260506123506 | 12 | 330 | 4.8 | 11.3 | 0.00 | 0.00 | 0.00 | 76 | 1011.5 |
| 20260506123433 | 12 | 340 | 4.8 | 16.1 | 0.00 | 0.00 | 0.00 | 76 | 1011.6 |
| 20260506122422 | 12 | 30 | 4.8 | 16.1 | 0.00 | 0.00 | 0.00 | 76 | 1011.1 |
| 20260506121920 | 12 | 16 | 6.4 | 17.7 | 0.00 | 0.00 | 0.00 | 76 | 1011.2 |
| 20260506121418 | 12 | 340 | 6.4 | 17.7 | 0.00 | 0.00 | 0.00 | 76 | 1011.4 |
| 20260506120852 | 12 | 11 | 8.0 | 22.5 | 0.00 | 0.00 | 0.00 | 75 | 1011.3 |
| 20260506120350 | 12 | 357 | 8.0 | 22.5 | 0.00 | 0.00 | 0.00 | 75 | 1011.3 |
| 20260506115849 | 12 | 307 | 8.0 | 17.7 | 0.00 | 0.00 | 0.00 | 74 | 1011.3 |
| 20260506115320 | 12 | 350 | 8.0 | 17.7 | 0.00 | 0.00 | 0.00 | 74 | 1011.0 |
| 20260506114822 | 12 | 321 | 8.0 | 22.5 | 0.00 | 0.00 | 0.00 | 74 | 1011.0 |
| 20260506114257 | 12 | 309 | 4.8 | 22.5 | 0.00 | 0.00 | 0.00 | 73 | 1010.8 |
| 20260506113751 | 13 | 28 | 4.8 | 14.5 | 0.00 | 0.00 | 0.00 | 72 | 1010.6 |
| 20260506113509 | 13 | 317 | 6.4 | 16.1 | 0.00 | 0.00 | 0.00 | 72 | 1010.5 |
| 20260506112721 | 13 | 345 | 6.4 | 17.7 | 0.00 | 0.00 | 0.00 | 72 | 1010.6 |
| 20260506112218 | 13 | 14 | 6.4 | 17.7 | 0.00 | 0.00 | 0.00 | 72 | 1010.7 |
| 20260506111706 | 13 | 316 | 8.0 | 19.3 | 0.00 | 0.00 | 0.00 | 72 | 1010.4 |
| 20260506111209 | 13 | 72 | 6.4 | 19.3 | 0.00 | 0.00 | 0.00 | 72 | 1010.4 |
| 20260506110650 | 13 | 30 | 6.4 | 16.1 | 0.00 | 0.00 | 0.00 | 71 | 1010.4 |
| 20260506110122 | 13 | 1 | 6.4 | 19.3 | 0.00 | 0.00 | 0.00 | 71 | 1010.2 |
| 20260506105559 | 13 | 16 | 6.4 | 19.3 | 0.00 | 0.00 | 0.00 | 70 | 1010.1 |
| 20260506105033 | 13 | 321 | 6.4 | 16.1 | 0.00 | 0.00 | 0.00 | 70 | 1009.9 |
| 20260506104528 | 13 | 27 | 6.4 | 16.1 | 0.00 | 0.00 | 0.00 | 70 | 1009.9 |
| 20260506104026 | 13 | 340 | 6.4 | 14.5 | 0.00 | 0.00 | 0.00 | 69 | 1009.8 |
| 20260506103502 | 13 | 27 | 4.8 | 14.5 | 0.00 | 0.00 | 0.00 | 69 | 1009.6 |
| 20260506103214 | 13 | 321 | 4.8 | 14.5 | 0.00 | 0.00 | 0.00 | 69 | 1009.5 |
| 20260506102724 | 13 | 352 | 4.8 | 14.5 | 0.00 | 0.00 | 0.00 | 69 | 1009.4 |
| 20260506101927 | 13 | 35 | 6.4 | 12.9 | 0.00 | 0.00 | 0.00 | 69 | 1009.3 |
| 20260506101401 | 14 | 9 | 4.8 | 12.9 | 0.00 | 0.00 | 0.00 | 69 | 1009.2 |
| 20260506100836 | 14 | 82 | 4.8 | 11.3 | 0.00 | 0.00 | 0.00 | 69 | 1009.1 |
| 20260506100307 | 14 | 333 | 4.8 | 12.9 | 0.00 | 0.00 | 0.00 | 69 | 1009.1 |
| 20260506095738 | 14 | 26 | 4.8 | 14.5 | 0.00 | 0.00 | 0.00 | 69 | 1009.1 |
| 20260506095458 | 14 | 96 | 3.2 | 14.5 | 0.00 | 0.00 | 0.00 | 70 | 1009.0 |
| 20260506094706 | 14 | 23 | 3.2 | 8.0 | 0.00 | 0.00 | 0.00 | 70 | 1009.0 |
| 20260506094204 | 14 | 1 | 4.8 | 11.3 | 0.00 | 0.00 | 0.00 | 69 | 1009.0 |
| 20260506093925 | 14 | 342 | 4.8 | 11.3 | 0.00 | 0.00 | 0.00 | 69 | 1009.0 |
| 20260506093203 | 14 | 324 | 3.2 | 11.3 | 0.00 | 0.00 | 0.00 | 69 | 1009.0 |
| 20260506092632 | 14 | 352 | 3.2 | 14.5 | 0.00 | 0.00 | 0.00 | 70 | 1009.1 |
| 20260506092130 | 14 | 350 | 4.8 | 14.5 | 0.00 | 0.00 | 0.00 | 69 | 1008.9 |
| 20260506092104 | 14 | 345 | 4.8 | 14.5 | 0.00 | 0.00 | 0.00 | 69 | 1008.8 |
| 20260506091557 | 14 | 347 | 3.2 | 14.5 | 0.00 | 0.00 | 0.00 | 69 | 1008.9 |
| 20260506090613 | 14 | 2 | 3.2 | 12.9 | 0.00 | 0.00 | 0.00 | 69 | 1008.8 |
| 20260506090114 | 14 | 9 | 4.8 | 12.9 | 0.00 | 0.00 | 0.00 | 69 | 1008.7 |
| 20260506085828 | 14 | 18 | 3.2 | 11.3 | 0.00 | 0.00 | 0.00 | 69 | 1008.6 |
| 20260506085058 | 14 | 338 | 4.8 | 16.1 | 0.00 | 0.00 | 0.00 | 69 | 1008.5 |
| 20260506084600 | 14 | 337 | 4.8 | 16.1 | 0.00 | 0.00 | 0.00 | 70 | 1008.5 |
| 20260506084029 | 14 | 328 | 4.8 | 12.9 | 0.00 | 0.00 | 0.00 | 69 | 1008.6 |
| 20260506083505 | 15 | 9 | 1.6 | 8.0 | 0.00 | 0.00 | 0.00 | 71 | 1008.5 |
| 20260506082940 | 15 | 14 | 3.2 | 11.3 | 0.00 | 0.00 | 0.00 | 70 | 1008.4 |
| 20260506082418 | 15 | 12 | 3.2 | 11.3 | 0.00 | 0.00 | 0.00 | 70 | 1008.1 |
| 20260506081918 | 15 | 338 | 3.2 | 11.3 | 0.00 | 0.00 | 0.00 | 70 | 1008.1 |
| 20260506081352 | 15 | 50 | 4.8 | 11.3 | 0.00 | 0.00 | 0.00 | 70 | 1008.2 |
| 20260506080846 | 15 | 356 | 4.8 | 11.3 | 0.00 | 0.00 | 0.00 | 71 | 1008.3 |
| 20260506080346 | 15 | 330 | 4.8 | 11.3 | 0.00 | 0.00 | 0.00 | 71 | 1008.3 |
| 20260506073214 | 15 | 345 | 3.2 | 12.9 | 0.00 | 0.00 | 0.00 | 71 | 1008.3 |
| 20260506072649 | 15 | 23 | 4.8 | 12.9 | 0.00 | 0.00 | 0.00 | 71 | 1008.4 |
| 20260506072128 | 15 | 356 | 4.8 | 12.9 | 0.00 | 0.00 | 0.00 | 71 | 1008.3 |
| 20260506071826 | 15 | 25 | 3.2 | 12.9 | 0.00 | 0.00 | 0.00 | 71 | 1008.4 |
| 20260506071035 | 15 | 326 | 3.2 | 12.9 | 0.00 | 0.00 | 0.00 | 71 | 1008.5 |
| 20260506070538 | 15 | 39 | 6.4 | 14.5 | 0.00 | 0.00 | 0.00 | 72 | 1008.3 |
| 20260506062314 | 16 | 359 | 3.2 | 9.7 | 0.00 | 0.00 | 0.00 | 72 | 1008.2 |
| 20260506061747 | 16 | 340 | 3.2 | 9.7 | 0.00 | 0.00 | 0.00 | 72 | 1008.3 |
| 20260506061224 | 16 | 359 | 4.8 | 14.5 | 0.00 | 0.00 | 0.00 | 72 | 1008.2 |
| 20260506060914 | 16 | 4 | 4.8 | 14.5 | 0.00 | 0.00 | 0.00 | 72 | 1008.1 |
| 20260506060200 | 16 | 44 | 4.8 | 11.3 | 0.00 | 0.00 | 0.00 | 72 | 1008.0 |
| 20260506050909 | 17 | 344 | 4.8 | 16.1 | 0.00 | 0.00 | 0.00 | 72 | 1008.0 |
| 20260506050346 | 17 | 346 | 4.8 | 16.1 | 0.00 | 0.00 | 0.00 | 72 | 1007.8 |
| 20260506044813 | 18 | 14 | 4.8 | 14.5 | 0.00 | 0.00 | 0.00 | 71 | 1007.8 |
| 20260506044311 | 18 | 350 | 4.8 | 16.1 | 0.00 | 0.00 | 0.00 | 71 | 1007.8 |
| 20260506043756 | 18 | 344 | 6.4 | 16.1 | 0.00 | 0.00 | 0.00 | 70 | 1007.7 |
| 20260506043243 | 18 | 39 | 4.8 | 14.5 | 0.00 | 0.00 | 0.00 | 71 | 1007.6 |
| 20260506042742 | 19 | 343 | 3.2 | 12.9 | 0.00 | 0.00 | 0.00 | 70 | 1007.7 |
| 20260506042243 | 19 | 320 | 4.8 | 12.9 | 0.00 | 0.00 | 0.00 | 71 | 1007.5 |
| 20260506042007 | 19 | 49 | 4.8 | 16.1 | 0.00 | 0.00 | 0.00 | 70 | 1007.3 |
| 20260506041243 | 20 | 349 | 4.8 | 16.1 | 0.00 | 0.00 | 0.00 | 70 | 1007.2 |
| 20260506040739 | 20 | 21 | 4.8 | 11.3 | 0.00 | 0.00 | 0.00 | 69 | 1007.2 |
| 20260506040240 | 20 | 351 | 6.4 | 17.7 | 0.00 | 0.00 | 0.00 | 69 | 1007.2 |
| 20260506035709 | 20 | 354 | 8.0 | 17.7 | 0.00 | 0.00 | 0.00 | 69 | 1007.3 |
| 20260506035206 | 20 | 34 | 6.4 | 16.1 | 0.00 | 0.00 | 0.00 | 69 | 1007.1 |
| 20260506034652 | 21 | 327 | 4.8 | 19.3 | 0.00 | 0.00 | 0.00 | 69 | 1007.1 |
| 20260506034153 | 21 | 27 | 4.8 | 12.9 | 0.00 | 0.00 | 0.00 | 69 | 1007.0 |
| 20260506033647 | 21 | 12 | 4.8 | 17.7 | 0.00 | 0.00 | 0.00 | 69 | 1006.8 |
| 20260506033144 | 21 | 23 | 6.4 | 17.7 | 0.00 | 0.00 | 0.00 | 69 | 1007.1 |
| 20260506032620 | 21 | 18 | 6.4 | 14.5 | 0.00 | 0.00 | 0.00 | 68 | 1006.8 |
| 20260506032113 | 21 | 349 | 6.4 | 14.5 | 0.00 | 0.00 | 0.00 | 68 | 1006.4 |
| 20260506031612 | 21 | 2 | 6.4 | 14.5 | 0.00 | 0.00 | 0.00 | 68 | 1006.6 |
| 20260506031113 | 21 | 17 | 6.4 | 17.7 | 0.00 | 0.00 | 0.00 | 68 | 1006.8 |
| 20260506030845 | 21 | 304 | 6.4 | 17.7 | 0.00 | 0.00 | 0.00 | 68 | 1006.7 |
| 20260506030048 | 22 | 355 | 8.0 | 22.5 | 0.00 | 0.00 | 0.00 | 67 | 1006.3 |
| 20260506025544 | 22 | 347 | 8.0 | 22.5 | 0.00 | 0.00 | 0.00 | 67 | 1006.2 |
| 20260506025045 | 22 | 349 | 8.0 | 19.3 | 0.00 | 0.00 | 0.00 | 66 | 1005.9 |
| 20260506024537 | 23 | 29 | 6.4 | 19.3 | 0.00 | 0.00 | 0.00 | 66 | 1005.9 |
| 20260506024037 | 23 | 15 | 6.4 | 12.9 | 0.00 | 0.00 | 0.00 | 65 | 1005.7 |
| 20260506023513 | 23 | 33 | 4.8 | 12.9 | 0.00 | 0.00 | 0.00 | 65 | 1005.5 |
| 20260506023011 | 23 | 347 | 3.2 | 11.3 | 0.00 | 0.00 | 0.00 | 65 | 1005.3 |
| 20260506022459 | 23 | 344 | 3.2 | 12.9 | 0.00 | 0.00 | 0.00 | 65 | 1005.1 |
| 20260506022002 | 23 | 23 | 3.2 | 12.9 | 0.00 | 0.00 | 0.00 | 65 | 1004.9 |
| 20260506021457 | 23 | 345 | 1.6 | 8.0 | 0.00 | 0.00 | 0.00 | 64 | 1004.7 |
| 20260506021000 | 23 | 333 | 3.2 | 16.1 | 0.00 | 0.00 | 0.00 | 64 | 1004.9 |
| 20260506020456 | 23 | 340 | 3.2 | 16.1 | 0.00 | 0.00 | 0.00 | 64 | 1004.7 |
| 20260506015954 | 23 | 338 | 4.8 | 9.7 | 0.00 | 0.00 | 0.00 | 63 | 1004.7 |
| 20260506015423 | 23 | 347 | 3.2 | 11.3 | 0.00 | 0.00 | 0.00 | 63 | 1004.8 |
| 20260506014919 | 23 | 345 | 3.2 | 11.3 | 0.00 | 0.00 | 0.00 | 63 | 1004.8 |
| 20260506014415 | 23 | 359 | 3.2 | 11.3 | 0.00 | 0.00 | 0.00 | 63 | 1004.4 |
| 20260506013914 | 24 | 32 | 4.8 | 14.5 | 0.00 | 0.00 | 0.00 | 63 | 1004.5 |
| 20260506013349 | 24 | 310 | 4.8 | 14.5 | 0.00 | 0.00 | 0.00 | 63 | 1004.3 |
| 20260506012823 | 24 | 308 | 4.8 | 12.9 | 0.00 | 0.00 | 0.00 | 63 | 1004.4 |
| 20260506012253 | 25 | 340 | 4.8 | 12.9 | 0.00 | 0.00 | 0.00 | 62 | 1004.6 |
| 20260506012012 | 25 | 325 | 3.2 | 12.9 | 0.00 | 0.00 | 0.00 | 62 | 1004.3 |
| 20260506011237 | 25 | 345 | 3.2 | 11.3 | 0.00 | 0.00 | 0.00 | 61 | 1004.0 |
| 20260506010734 | 25 | 9 | 1.6 | 6.4 | 0.00 | 0.00 | 0.00 | 61 | 1003.9 |
| 20260506010211 | 26 | 39 | 1.6 | 6.4 | 0.00 | 0.00 | 0.00 | 61 | 1003.9 |
| 20260506005705 | 26 | 328 | 1.6 | 6.4 | 0.00 | 0.00 | 0.00 | 61 | 1003.8 |
| 20260506005204 | 26 | 10 | 0.0 | 6.4 | 0.00 | 0.00 | 0.00 | 61 | 1003.9 |
| 20260506004639 | 26 | 236 | 0.0 | 6.4 | 0.00 | 0.00 | 0.00 | 61 | 1003.9 |
| 20260506004109 | 26 | 236 | 1.6 | 6.4 | 0.00 | 0.00 | 0.00 | 61 | 1004.0 |
| 20260506003607 | 26 | 231 | 3.2 | 14.5 | 0.00 | 0.00 | 0.00 | 63 | 1003.7 |
| 20260506003042 | 26 | 262 | 3.2 | 14.5 | 0.00 | 0.00 | 0.00 | 65 | 1003.6 |
| 20260506002537 | 26 | 161 | 4.8 | 12.9 | 0.00 | 0.00 | 0.00 | 74 | 1003.8 |
| 20260506002035 | 27 | 224 | 6.4 | 14.5 | 0.00 | 0.00 | 0.00 | 72 | 1003.8 |
| 20260506001514 | 27 | 214 | 4.8 | 14.5 | 0.00 | 0.00 | 0.00 | 71 | 1003.9 |
| 20260506001015 | 27 | 113 | 4.8 | 12.9 | 0.00 | 0.00 | 0.00 | 68 | 1003.5 |
| 20260506000516 | 28 | 229 | 6.4 | 16.1 | 0.00 | 0.00 | 0.00 | 66 | 1003.3 |
| 20260505235947 | 28 | 139 | 4.8 | 16.1 | 0.00 | 0.00 | 0.00 | 65 | 1003.1 |
| 20260505235930 | 28 | 266 | 6.4 | 14.5 | 0.00 | 0.00 | 0.00 | 65 | 1002.7 |
| 20260505234942 | 28 | 129 | 11.3 | 25.7 | 0.00 | 0.00 | 0.00 | 65 | 1002.7 |
| 20260505234638 | 28 | 225 | 11.3 | 25.7 | 0.00 | 0.00 | 0.00 | 64 | 1002.4 |
| 20260505233908 | 28 | 226 | 9.7 | 20.9 | 0.00 | 0.00 | 0.00 | 64 | 1002.6 |
| 20260505233344 | 28 | 177 | 9.7 | 20.9 | 0.00 | 0.00 | 0.00 | 63 | 1002.7 |
| 20260505233041 | 29 | 97 | 9.7 | 20.9 | 0.00 | 0.00 | 0.00 | 63 | 1002.6 |
| 20260505232312 | 29 | 174 | 8.0 | 19.3 | 0.00 | 0.00 | 0.00 | 62 | 1002.4 |
| 20260505231747 | 29 | 263 | 6.4 | 19.3 | 0.00 | 0.00 | 0.00 | 62 | 1002.5 |
| 20260505231219 | 29 | 210 | 8.0 | 19.3 | 0.00 | 0.00 | 0.00 | 62 | 1002.5 |
| 20260505230717 | 29 | 173 | 8.0 | 19.3 | 0.00 | 0.00 | 0.00 | 62 | 1002.5 |
| 20260505230213 | 30 | 240 | 6.4 | 16.1 | 0.00 | 0.00 | 0.00 | 61 | 1002.4 |
| 20260505225649 | 30 | 177 | 6.4 | 14.5 | 0.00 | 0.00 | 0.00 | 61 | 1002.4 |
| 20260505225137 | 30 | 166 | 6.4 | 12.9 | 0.00 | 0.00 | 0.00 | 61 | 1002.4 |
| 20260505224638 | 30 | 231 | 6.4 | 17.7 | 0.00 | 0.00 | 0.00 | 61 | 1002.3 |
| 20260505224133 | 29 | 170 | 6.4 | 17.7 | 0.00 | 0.00 | 0.00 | 62 | 1002.4 |
| 20260505224118 | 30 | 135 | 8.0 | 16.1 | 0.00 | 0.00 | 0.00 | 62 | 1002.2 |
| 20260505223103 | 30 | 70 | 8.0 | 16.1 | 0.00 | 0.00 | 0.00 | 61 | 1002.0 |
| 20260505222540 | 30 | 136 | 8.0 | 16.1 | 0.00 | 0.00 | 0.00 | 58 | 1002.1 |
| 20260505222012 | 30 | 191 | 8.0 | 16.1 | 0.00 | 0.00 | 0.00 | 57 | 1002.1 |
| 20260505221731 | 30 | 202 | 6.4 | 16.1 | 0.00 | 0.00 | 0.00 | 56 | 1002.2 |
| 20260505220941 | 31 | 151 | 6.4 | 17.7 | 0.00 | 0.00 | 0.00 | 56 | 1002.2 |
| 20260505220438 | 31 | 182 | 6.4 | 17.7 | 0.00 | 0.00 | 0.00 | 56 | 1002.1 |
| 20260505215937 | 31 | 141 | 6.4 | 14.5 | 0.00 | 0.00 | 0.00 | 57 | 1002.1 |
| 20260505215634 | 31 | 224 | 4.8 | 11.3 | 0.00 | 0.00 | 0.00 | 55 | 1002.1 |
| 20260505214910 | 31 | 254 | 6.4 | 22.5 | 0.00 | 0.00 | 0.00 | 53 | 1002.2 |
| 20260505214341 | 31 | 251 | 6.4 | 22.5 | 0.00 | 0.00 | 0.00 | 54 | 1002.4 |
| 20260505213841 | 31 | 262 | 4.8 | 14.5 | 0.00 | 0.00 | 0.00 | 53 | 1002.4 |
| 20260505213316 | 31 | 144 | 8.0 | 20.9 | 0.00 | 0.00 | 0.00 | 53 | 1002.3 |
| 20260505212747 | 31 | 213 | 9.7 | 20.9 | 0.00 | 0.00 | 0.00 | 52 | 1002.4 |
| 20260505212501 | 31 | 210 | 8.0 | 19.3 | 0.00 | 0.00 | 0.00 | 53 | 1002.5 |
| 20260505211932 | 31 | 165 | 8.0 | 20.9 | 0.00 | 0.00 | 0.00 | 54 | 1002.5 |
| 20260505211153 | 31 | 231 | 8.0 | 20.9 | 0.00 | 0.00 | 0.00 | 53 | 1002.5 |
| 20260505210921 | 31 | 220 | 8.0 | 24.1 | 0.00 | 0.00 | 0.00 | 52 | 1002.5 |
| 20260505210354 | 31 | 277 | 11.3 | 24.1 | 0.00 | 0.00 | 0.00 | 53 | 1002.5 |
| 20260505205852 | 31 | 221 | 11.3 | 25.7 | 0.00 | 0.00 | 0.00 | 53 | 1002.7 |